W3JGB Weather Reports


time (UTC)temp
C
wind
direction
speed
KPH
gust
KPH
rain 1hr
cm
rain 24hr
cm
rain mn
cm
humidity
%
barometer
mb
20260507085909 5 358 0.0 0.0 0.00 0.00 0.00 97 1011.2
20260507085406 5 6 0.0 0.0 0.00 0.00 0.00 97 1011.3
20260507084903 5 5 0.0 0.0 0.00 0.00 0.00 96 1011.3
20260507084400 5 7 0.0 0.0 0.00 0.00 0.00 96 1011.5
20260507083857 5 3 0.0 0.0 0.00 0.00 0.00 95 1011.6
20260507083353 5 4 0.0 0.0 0.00 0.00 0.00 94 1011.6
20260507082850 5 3 0.0 0.0 0.00 0.00 0.00 94 1011.6
20260507082345 6 5 0.0 0.0 0.00 0.00 0.00 94 1011.5
20260507081843 6 4 0.0 0.0 0.00 0.00 0.00 94 1011.7
20260507081339 6 2 0.0 0.0 0.00 0.00 0.00 92 1011.6
20260507080836 6 3 0.0 0.0 0.00 0.00 0.00 93 1011.5
20260507080332 6 4 0.0 0.0 0.00 0.00 0.00 92 1011.6
20260507075827 6 4 0.0 0.0 0.00 0.00 0.00 92 1011.6
20260507075323 6 7 0.0 0.0 0.00 0.00 0.00 92 1011.6
20260507074820 6 7 0.0 0.0 0.00 0.00 0.00 93 1011.6
20260507074318 6 8 0.0 0.0 0.00 0.00 0.00 93 1011.6
20260507073815 6 7 0.0 0.0 0.00 0.00 0.00 92 1011.8
20260507073311 6 7 0.0 0.0 0.00 0.00 0.00 92 1011.8
20260507072809 6 7 0.0 0.0 0.00 0.00 0.00 92 1011.6
20260507072307 6 5 0.0 0.0 0.00 0.00 0.00 94 1011.6
20260507071803 6 5 0.0 0.0 0.00 0.00 0.00 92 1011.7
20260507071300 6 1 0.0 0.0 0.00 0.00 0.00 92 1011.7
20260507070756 6 3 0.0 0.0 0.00 0.00 0.00 90 1011.9
20260507070254 6 359 0.0 0.0 0.00 0.00 0.00 88 1011.9
20260507065750 6 2 0.0 0.0 0.00 0.00 0.00 86 1011.5
20260507065247 6 5 0.0 0.0 0.00 0.00 0.00 85 1011.7
20260507064744 6 3 0.0 1.6 0.00 0.00 0.00 82 1011.8
20260507064243 7 5 0.0 0.0 0.00 0.00 0.00 83 1011.6
20260507063740 7 4 0.0 1.6 0.00 0.00 0.00 81 1011.6
20260507063237 7 0 1.6 1.6 0.00 0.00 0.00 81 1011.6
20260507062734 8 8 0.0 0.0 0.00 0.00 0.00 77 1011.7
20260507062231 8 3 0.0 0.0 0.00 0.00 0.00 76 1011.5
20260507061730 8 325 4.8 4.8 0.00 0.00 0.00 72 1011.6
20260507061227 8 12 1.6 1.6 0.00 0.00 0.00 75 1011.7
20260507060725 8 8 1.6 1.6 0.00 0.00 0.00 81 1011.6
20260507060221 9 0 0.0 0.0 0.00 0.00 0.00 80 1011.6
20260507055717 9 6 0.0 1.6 0.00 0.00 0.00 71 1011.9
20260507055213 10 5 0.0 0.0 0.00 0.00 0.00 71 1011.7
20260507054709 10 359 1.6 1.6 0.00 0.00 0.00 68 1011.7
20260507054206 10 3 0.0 0.0 0.00 0.00 0.00 73 1011.7
20260507053704 10 327 6.4 8.0 0.00 0.00 0.00 68 1011.7
20260507053201 10 342 0.0 1.6 0.00 0.00 0.00 69 1011.7
20260507052700 10 347 4.8 4.8 0.00 0.00 0.00 69 1011.6
20260507052155 10 11 1.6 1.6 0.00 0.00 0.00 72 1011.8
20260507051654 10 2 1.6 1.6 0.00 0.00 0.00 71 1011.7
20260507051150 10 341 3.2 3.2 0.00 0.00 0.00 71 1011.8
20260507050647 10 20 0.0 1.6 0.00 0.00 0.00 75 1011.9
20260507050144 10 1 1.6 3.2 0.00 0.00 0.00 73 1011.9
20260507045641 10 336 4.8 8.0 0.00 0.00 0.00 73 1011.6
20260507045137 10 5 3.2 3.2 0.00 0.00 0.00 75 1011.6
20260507044634 10 15 1.6 1.6 0.00 0.00 0.00 75 1011.9
20260507044131 10 8 3.2 3.2 0.00 0.00 0.00 76 1011.6
20260507043627 10 6 0.0 0.0 0.00 0.00 0.00 86 1011.7
20260507043124 10 6 0.0 1.6 0.00 0.00 0.00 85 1011.6
20260507042620 10 6 0.0 1.6 0.00 0.00 0.00 83 1011.5
20260507042115 10 4 0.0 0.0 0.00 0.00 0.00 83 1011.4
20260507041613 10 5 0.0 0.0 0.00 0.00 0.00 82 1011.3
20260507041109 10 10 0.0 0.0 0.00 0.00 0.00 84 1011.3
20260507040607 10 7 0.0 1.6 0.00 0.00 0.00 83 1011.5
20260507035558 10 2 0.0 0.0 0.00 0.94 0.94 83 1011.5
20260507035055 10 24 0.0 1.6 0.00 0.94 0.94 81 1011.7
20260507034552 10 3 1.6 1.6 0.00 0.94 0.94 80 1011.2
20260507034050 10 341 4.8 4.8 0.00 0.94 0.94 81 1011.4
20260507033548 10 355 0.0 1.6 0.00 0.94 0.94 83 1011.1
20260507033044 10 221 8.0 9.7 0.00 0.94 0.94 87 1011.1
20260507032541 10 7 0.0 1.6 0.00 0.94 0.94 92 1011.1
20260507032038 10 13 0.0 0.0 0.00 0.94 0.94 92 1011.2
20260507031534 10 22 1.6 1.6 0.00 0.94 0.94 92 1011.0
20260507031031 10 6 0.0 0.0 0.00 0.94 0.94 91 1011.1
20260507030528 10 14 0.0 0.0 0.00 0.94 0.94 93 1011.4
20260507030026 10 4 0.0 0.0 0.00 0.94 0.94 94 1011.5
20260507025522 9 1 1.6 1.6 0.00 0.94 0.94 93 1011.3
20260507025020 9 357 1.6 1.6 0.00 0.94 0.94 94 1010.9
20260507024518 10 353 0.0 0.0 0.00 0.94 0.94 93 1010.9
20260507024014 10 351 1.6 1.6 0.00 0.94 0.94 93 1010.9
20260507023510 10 359 0.0 0.0 0.00 0.94 0.94 92 1011.1
20260507023008 10 5 0.0 0.0 0.00 0.94 0.94 91 1011.1
20260507022505 10 356 0.0 1.6 0.00 0.94 0.94 88 1011.0
20260507022000 10 13 0.0 1.6 0.00 0.94 0.94 89 1010.9
20260507021455 10 4 0.0 0.0 0.00 0.94 0.94 89 1011.2
20260507020953 11 4 0.0 0.0 0.00 0.94 0.94 89 1011.1
20260507020450 11 6 0.0 0.0 0.00 0.94 0.94 88 1011.3
20260507015947 11 6 0.0 0.0 0.00 0.94 0.94 88 1011.4
20260507015445 11 347 1.6 1.6 0.00 0.94 0.94 90 1011.3
20260507014942 11 354 1.6 1.6 0.00 0.94 0.94 89 1011.1
20260507014438 11 220 4.8 4.8 0.00 0.94 0.94 88 1011.3
20260507013935 11 26 1.6 1.6 0.00 0.94 0.94 86 1011.4
20260507013431 11 22 1.6 1.6 0.00 0.94 0.94 85 1011.4
20260507012929 11 1 1.6 3.2 0.00 0.94 0.94 85 1011.3
20260507012426 11 352 1.6 3.2 0.00 0.94 0.94 86 1011.3
20260507011922 11 7 0.0 0.0 0.00 0.94 0.94 86 1011.3
20260507011420 12 5 1.6 1.6 0.00 0.94 0.94 85 1011.0
20260507010919 12 336 1.6 1.6 0.00 0.94 0.94 85 1010.9
20260507010415 12 336 3.2 4.8 0.00 0.94 0.94 84 1011.3
20260507005912 12 353 3.2 3.2 0.00 0.94 0.94 85 1011.3
20260507005409 12 42 1.6 3.2 0.00 0.94 0.94 84 1011.2
20260507004906 12 3 1.6 1.6 0.00 0.94 0.94 84 1011.1
20260507004403 12 323 3.2 3.2 0.00 0.94 0.94 84 1010.8
20260507003900 12 5 1.6 1.6 0.00 0.94 0.94 85 1010.8
20260507003355 12 8 0.0 1.6 0.00 0.94 0.94 85 1010.8
20260507002851 12 6 3.2 3.2 0.00 0.94 0.94 85 1010.7
20260507002347 12 354 1.6 1.6 0.00 0.94 0.94 87 1010.5
20260507001844 12 8 1.6 1.6 0.00 0.94 0.94 86 1010.4
20260507001341 12 357 1.6 1.6 0.00 0.94 0.94 86 1010.2
20260507000837 12 344 1.6 3.2 0.00 0.94 0.94 86 1010.2
20260507000333 13 326 4.8 8.0 0.00 0.94 0.94 85 1009.8
20260506235830 13 295 1.6 1.6 0.00 0.94 0.94 85 1009.8
20260506235326 13 6 0.0 0.0 0.00 0.94 0.94 85 1009.7
20260506234822 13 345 4.8 11.3 0.00 0.94 0.94 85 1009.6
20260506234320 13 35 4.8 8.0 0.00 0.94 0.94 84 1009.4
20260506233818 13 5 0.0 1.6 0.00 0.94 0.94 86 1009.3
20260506233313 13 348 6.4 8.0 0.00 0.94 0.94 86 1009.4
20260506232810 13 358 6.4 8.0 0.00 0.94 0.94 85 1009.4
20260506232306 13 5 0.0 1.6 0.00 0.94 0.94 85 1009.2
20260506231803 13 15 0.0 1.6 0.00 0.94 0.94 85 1009.3
20260506231301 13 342 1.6 1.6 0.00 0.94 0.94 86 1009.1
20260506230758 14 211 4.8 8.0 0.00 0.94 0.94 86 1009.3
20260506230255 14 324 1.6 1.6 0.00 0.94 0.94 86 1009.1
20260506225751 14 353 0.0 0.0 0.00 0.94 0.94 85 1009.0
20260506225248 14 358 3.2 3.2 0.00 0.94 0.94 85 1008.9
20260506224744 14 358 3.2 3.2 0.00 0.94 0.94 86 1008.6
20260506224242 14 358 1.6 1.6 0.00 0.94 0.94 86 1008.7
20260506223738 14 345 4.8 9.7 0.00 0.94 0.94 86 1008.6
20260506223233 14 10 4.8 4.8 0.00 0.94 0.94 86 1008.6
20260506222731 15 26 6.4 9.7 0.00 0.94 0.94 86 1008.6
20260506222226 15 4 3.2 3.2 0.00 0.94 0.94 86 1008.7
20260506221725 15 355 0.0 0.0 0.00 0.94 0.94 86 1008.4
20260506221222 15 255 11.3 17.7 0.00 0.94 0.94 86 1008.2
20260506220719 15 335 4.8 8.0 0.00 0.94 0.94 85 1008.2
20260506220214 16 332 6.4 9.7 0.00 0.94 0.94 84 1008.0
20260506215711 16 348 1.6 1.6 0.00 0.94 0.94 84 1007.8
20260506215206 16 294 1.6 3.2 0.00 0.94 0.94 85 1008.0
20260506214703 16 330 3.2 3.2 0.00 0.94 0.94 85 1007.9
20260506214201 16 0 1.6 1.6 0.00 0.94 0.94 85 1007.8
20260506213659 16 4 0.0 0.0 0.00 0.94 0.94 85 1007.6
20260506213156 16 133 3.2 8.0 0.00 0.94 0.94 85 1007.4
20260506212653 16 2 1.6 1.6 0.00 0.94 0.94 84 1007.2
20260506212148 17 287 8.0 11.3 0.00 0.94 0.94 84 1007.3
20260506211644 17 42 3.2 3.2 0.00 0.94 0.94 86 1007.2
20260506211141 17 122 3.2 3.2 0.00 0.94 0.94 88 1007.0
20260506210637 16 345 3.2 4.8 0.00 0.94 0.94 88 1007.0
20260506210134 16 5 1.6 3.2 0.00 0.94 0.94 89 1006.9
20260506205631 17 335 1.6 3.2 0.00 0.94 0.94 88 1007.0
20260506205126 17 5 0.0 0.0 0.00 0.94 0.94 89 1006.7
20260506204624 17 4 0.0 0.0 0.00 0.94 0.94 88 1006.8
20260506204121 17 0 0.0 1.6 0.00 0.94 0.94 90 1006.7
20260506203619 17 345 0.0 0.0 0.00 0.94 0.94 90 1006.8
20260506203115 16 357 0.0 0.0 0.00 0.94 0.94 90 1006.6
20260506202614 17 345 3.2 3.2 0.00 0.94 0.94 89 1006.4
20260506202109 17 337 1.6 3.2 0.00 0.94 0.94 87 1006.4
20260506201607 17 14 0.0 1.6 0.00 0.94 0.94 88 1006.6
20260506201103 17 211 8.0 11.3 0.00 0.94 0.94 87 1006.6
20260506200559 17 354 4.8 4.8 0.00 0.94 0.94 89 1006.5
20260506200056 17 316 8.0 11.3 0.00 0.94 0.94 87 1006.4
20260506195553 17 9 4.8 8.0 0.00 0.94 0.94 88 1006.3
20260506195049 17 224 4.8 4.8 0.00 0.94 0.94 90 1006.2
20260506194547 17 6 1.6 1.6 0.00 0.94 0.94 92 1006.5
20260506194043 17 19 1.6 1.6 0.00 0.94 0.94 95 1006.4
20260506193541 16 0 1.6 1.6 0.00 0.94 0.94 94 1006.3
20260506193038 16 6 0.0 0.0 0.00 0.94 0.94 96 1006.5
20260506192535 16 3 0.0 0.0 0.18 0.94 0.94 96 1006.6
20260506192031 16 183 8.0 11.3 0.00 0.91 0.91 93 1006.6
20260506191528 17 348 3.2 3.2 0.00 0.91 0.91 92 1006.5
20260506191024 17 351 1.6 3.2 0.00 0.91 0.91 91 1006.3
20260506190521 17 294 1.6 3.2 0.00 0.91 0.91 89 1006.5
20260506190019 17 193 8.0 9.7 0.00 0.91 0.91 89 1006.4
20260506185515 18 352 1.6 3.2 0.00 0.91 0.91 88 1006.2
20260506185011 18 16 1.6 1.6 0.00 0.91 0.91 88 1006.3
20260506184509 18 354 1.6 1.6 0.00 0.91 0.91 87 1006.3
20260506184006 18 344 4.8 9.7 0.00 0.91 0.91 87 1006.4
20260506183502 18 70 3.2 3.2 0.00 0.91 0.91 87 1006.3
20260506182959 18 358 0.0 1.6 0.00 0.91 0.91 86 1006.3
20260506182456 18 277 3.2 3.2 0.00 0.91 0.91 89 1006.3
20260506181953 18 91 3.2 3.2 0.00 0.91 0.91 89 1006.1
20260506181451 17 311 4.8 8.0 0.00 0.91 0.91 89 1006.4
20260506180947 17 1 0.0 0.0 0.00 0.91 0.91 90 1006.2
20260506180444 17 2 1.6 1.6 0.00 0.91 0.91 90 1006.5
20260506175941 17 315 3.2 3.2 0.00 0.91 0.91 90 1006.4
20260506175438 17 246 4.8 8.0 0.00 0.91 0.91 89 1006.4
20260506174934 17 0 1.6 1.6 0.00 0.91 0.91 92 1006.4
20260506174432 17 58 1.6 3.2 0.00 0.91 0.91 92 1006.5
20260506173929 17 322 1.6 1.6 0.00 0.91 0.91 90 1006.5
20260506173426 17 26 1.6 1.6 0.00 0.91 0.91 91 1006.4
20260506172923 17 291 3.2 4.8 0.00 0.91 0.91 91 1006.6
20260506172420 18 330 3.2 4.8 0.00 0.91 0.91 92 1006.2
20260506171916 17 344 3.2 3.2 0.00 0.91 0.91 92 1006.5
20260506171414 17 348 3.2 3.2 0.00 0.91 0.91 94 1006.6
20260506170912 16 0 0.0 0.0 0.00 0.91 0.91 95 1006.6
20260506170408 16 8 0.0 1.6 0.00 0.91 0.91 96 1006.4
20260506165907 16 344 3.2 3.2 0.00 0.91 0.91 98 1006.4
20260506165405 15 4 0.0 0.0 0.00 0.91 0.91 98 1006.6
20260506164901 15 80 3.2 4.8 0.00 0.91 0.91 99 1006.9
20260506164357 15 333 1.6 3.2 0.00 0.91 0.91 99 1006.5
20260506163855 15 355 0.0 0.0 0.00 0.91 0.91 99 1006.7
20260506163349 15 30 0.0 1.6 0.00 0.91 0.91 99 1006.7
20260506162845 15 45 3.2 3.2 0.00 0.91 0.91 99 1006.6
20260506162343 15 1 0.0 0.0 0.00 0.91 0.91 99 1006.8
20260506161840 15 4 0.0 0.0 0.00 0.91 0.91 99 1006.8
20260506161337 14 349 0.0 1.6 0.00 0.91 0.91 99 1007.0
20260506160830 14 7 0.0 0.0 0.00 0.91 0.91 99 1006.9
20260506160326 14 84 0.0 1.6 0.00 0.91 0.91 99 1006.7
20260506155825 14 7 0.0 0.0 0.00 0.91 0.91 99 1006.7
20260506155321 14 5 0.0 0.0 0.00 0.91 0.91 99 1006.9
20260506153433 14 3 0.0 1.6 0.00 0.91 0.91 99 1006.8
20260506152930 14 347 1.6 1.6 0.00 0.91 0.91 99 1006.8
20260506152427 14 5 0.0 0.0 0.00 0.91 0.91 99 1006.5
20260506151926 14 2 0.0 0.0 0.00 0.91 0.91 99 1006.5
20260506151422 14 345 0.0 0.0 0.00 0.91 0.91 99 1006.4
20260506150920 14 12 0.0 0.0 0.00 0.91 0.91 99 1006.4
20260506150416 14 5 0.0 0.0 0.00 0.91 0.91 99 1006.4
20260506145913 13 8 0.0 0.0 0.00 0.91 0.91 99 1006.2
20260506145409 14 1 1.6 1.6 0.18 0.91 0.91 99 1006.6
20260506144907 13 4 0.0 1.6 0.18 0.91 0.91 99 1006.6
20260506144403 13 351 1.6 1.6 0.00 0.89 0.89 99 1006.6
20260506143902 13 3 0.0 0.0 0.13 0.89 0.89 99 1006.7
20260506143358 13 8 0.0 0.0 0.13 0.89 0.89 99 1006.7
20260506142857 13 3 0.0 0.0 0.00 0.86 0.86 99 1006.9
20260506142354 13 5 0.0 0.0 0.18 0.86 0.86 99 1006.9
20260506141852 13 8 0.0 0.0 0.30 0.86 0.86 99 1006.7
20260506141350 13 4 0.0 0.0 0.13 0.84 0.84 99 1006.8
20260506140848 13 5 0.0 0.0 0.00 0.81 0.81 99 1006.7
20260506140344 13 344 0.0 0.0 0.18 0.81 0.81 99 1006.8
20260506135841 13 1 0.0 0.0 0.18 0.81 0.81 99 1006.9
20260506135338 13 6 0.0 0.0 0.13 0.79 0.79 99 1006.7
20260506134834 13 8 0.0 0.0 0.30 0.79 0.79 99 1006.9
20260506134331 13 8 0.0 0.0 0.30 0.79 0.79 99 1006.6
20260506133828 13 6 0.0 0.0 0.30 0.74 0.74 99 1006.8
20260506133325 13 3 0.0 0.0 0.18 0.71 0.71 99 1006.6
20260506132822 13 354 0.0 0.0 0.13 0.69 0.69 99 1006.7
20260506132319 13 6 0.0 0.0 0.13 0.69 0.69 99 1006.8
20260506131817 13 6 0.0 0.0 0.00 0.66 0.66 99 1006.7
20260506131313 13 8 1.6 1.6 0.18 0.66 0.66 99 1006.8
20260506130810 13 9 0.0 0.0 0.18 0.66 0.66 99 1006.9
20260506130306 13 7 0.0 0.0 0.00 0.64 0.64 99 1007.1
20260506125804 13 7 0.0 0.0 0.13 0.64 0.64 99 1006.9
20260506125305 13 1 0.0 0.0 0.13 0.64 0.64 99 1006.9
20260506124800 13 2 0.0 0.0 0.18 0.61 0.61 99 1006.7
20260506124257 13 4 0.0 0.0 0.48 0.61 0.61 99 1006.7
20260506123755 13 9 0.0 0.0 0.61 0.58 0.58 99 1006.9
20260506123253 13 3 0.0 0.0 0.48 0.53 0.53 99 1007.0
20260506122750 13 7 0.0 0.0 0.43 0.51 0.51 99 1007.3
20260506122247 13 9 0.0 0.0 0.43 0.46 0.46 99 1007.3
20260506121745 13 6 0.0 0.0 0.48 0.43 0.43 99 1007.3
20260506121242 13 7 0.0 0.0 0.30 0.38 0.38 99 1007.5
20260506120739 13 13 0.0 0.0 0.30 0.36 0.36 99 1007.7
20260506120237 13 7 0.0 0.0 0.30 0.33 0.33 99 1007.9
20260506115734 13 7 0.0 0.0 0.30 0.30 0.30 99 1007.9
20260506115232 13 6 0.0 0.0 0.36 0.28 0.28 99 1007.6
20260506114729 13 4 0.0 0.0 0.30 0.25 0.25 99 1007.6
20260506114227 13 6 0.0 0.0 0.13 0.23 0.23 99 1007.3
20260506113725 13 8 0.0 0.0 0.18 0.20 0.20 99 1007.2
20260506113223 13 4 0.0 0.0 0.18 0.20 0.20 99 1007.1
20260506112719 13 0 0.0 0.0 0.00 0.18 0.18 99 1006.9
20260506112217 13 6 0.0 0.0 0.13 0.18 0.18 99 1006.9
20260506111714 13 7 0.0 0.0 0.30 0.18 0.18 99 1006.9
20260506111212 12 6 0.0 0.0 0.30 0.15 0.15 99 1006.8
20260506110708 13 7 0.0 0.0 0.13 0.13 0.13 99 1006.8
20260506110206 12 6 0.0 0.0 0.18 0.10 0.10 99 1006.8
20260506105703 12 7 0.0 0.0 0.18 0.10 0.10 99 1006.6
20260506105200 12 6 0.0 0.0 0.13 0.08 0.08 99 1006.5
20260506104658 12 7 0.0 0.0 0.30 0.08 0.08 99 1006.7
20260506104155 12 10 0.0 0.0 0.18 0.05 0.05 99 1006.6
20260506103652 13 13 0.0 0.0 0.00 0.03 0.03 99 1006.6
20260506103149 13 3 0.0 0.0 0.00 0.03 0.03 99 1006.4
20260506102647 13 5 0.0 0.0 0.00 0.03 0.03 99 1006.1
20260506102144 13 7 0.0 0.0 0.00 0.03 0.03 99 1006.4
20260506101641 13 8 0.0 0.0 0.13 0.03 0.03 99 1006.4
20260506101138 13 6 0.0 0.0 0.13 0.03 0.03 99 1006.4
20260506100636 13 359 0.0 0.0 0.00 0.00 0.00 99 1006.5
20260506100134 13 357 0.0 0.0 0.00 0.00 0.00 99 1006.5
20260506095632 13 5 0.0 0.0 0.00 0.00 0.00 99 1006.3
20260506095129 13 4 0.0 0.0 0.00 0.00 0.00 99 1006.3
20260506094626 13 3 0.0 0.0 0.00 0.00 0.00 99 1006.3
20260506094124 13 3 0.0 0.0 0.00 0.00 0.00 99 1006.1
20260506093622 13 6 0.0 0.0 0.00 0.00 0.00 99 1006.0
20260506093119 13 11 0.0 0.0 0.00 0.00 0.00 99 1006.1
20260506092617 13 5 0.0 0.0 0.00 0.00 0.00 99 1006.3
20260506092113 13 6 0.0 0.0 0.00 0.00 0.00 99 1006.3
20260506091611 13 6 0.0 0.0 0.00 0.00 0.00 99 1006.3
20260506091109 13 7 0.0 0.0 0.00 0.00 0.00 99 1006.4
20260506090607 13 7 0.0 0.0 0.00 0.00 0.00 99 1006.4